Terug naar catalogus

YAOGAN-30 AA

ActiefMilitairVLEO
NORAD 48860·PAYLOAD·🇨🇳 China

Gelanceerd Jun 18, 2021 vanaf Xichang Satellite Launch Center

Loading…

Volgende Passages (komende 24 uur)

TLE

VersSource: Space-Track

Epoch: Sep 14, 2026, 14:54 UTC

1 48860U 21055A   26257.62100093  .00001733  00000-0  12826-3 0  9998
2 48860  34.9967 327.0006 0002965 142.5689 217.5227 15.03025670286642

Volg YAOGAN-30 AA in realtime met AllMySat

Download on the App Store